User: anonymous   Login
Location: L'Union
(43.6635°N, 1.4699°E)
Time: 07:28:01
(UTC+02:00)
Language:

KKS-1 - Orbit

View from above orbital plane
View from above orbital plane
View from above satellite
View from above satellite

Ground track
Ground track

The orbit data is extracted from the following two-line orbital elements,

1 33499U 09002H   21290.65762395  .00000248  00000-0  44107-4 0  9990
2 33499  98.2483 163.2281 0009520  18.8738 341.2822 14.75715209684863
Epoch (UTC): 17 October 2021 15:46:58
Eccentricity: 0.0009520
inclination: 98.2483°
perigee height: 636 km
apogee height: 649 km
right ascension of ascending node: 163.2281°
argument of perigee: 18.8738°
revolutions per day: 14.75715209
mean anomaly at epoch: 341.2822°
orbit number at epoch: 68486

The dashed part of the orbit path shows where the satellite is in the earth's shadow,  

DLR